STARLINK-11191, 60410

Orbit data source: Space-Track

STARLINK-11191, 60410 is a payload satellite owned by SpaceX/Seattle (US) in LEO that was launched on Sat, 10 Aug 2024 UTC via an FALCON 9 launch vehicle from the Air Force Eastern Test Range (AFETR). Payloads include a variety of satellites, spacecraft, and rockets equipped with specific instruments for various scientific and technological missions. These include communications satellites like Starlink; space stations such as the ISS; scientific satellites like the Hubble; Earth observation satellites from companies like Planet Labs, Umbra, and HawkEye 360; GPS; miniature CubeSats for education and research; and military/defense satellites.

Loading next visibility...
STARLINK-11191 details
Identifier
60410, 2024-141N
Orbit
LEO
Last TLE update9 hours ago
Origin
Flag of USSpaceX/Seattle (US)
ManufacturerSpaceX/Seattle
MissionOperational spacecraft
Bus & MotorSTARLINK V2M, Unknown motor
Mass730 kg wet, ~700 kg dry
Launch date (UTC)
2024-08-10 (5 months ago)
Launch vehicle
FALCON 9
Launch site
Air Force Eastern Test Range (AFETR)
Object type
Payload
Rocket body
Debris
Shape & HBRUnknown
Radar Cross SectionLarge (>1 m²)

Expand to show TLE details & history

TLE from 9 hours ago
0 STARLINK-11191
1 60410U 24141N   25014.93273757 -.00001128  00000-0 -44479-5 0  9995
2 60410  53.1589 350.4873 0001550 103.7460 256.3731 15.69713553 25971
Epoch: 2025-01-14T22:23Z
Definitive object data (Epoch: 2025-01-14T22:23:08.526Z)
Latitude0.00004°
Longitude-99.93053°
Altitude360.878 km
Speed7.694 km/s
True Right ascension23h 21m 56s
True Declination0° 00' 00"
Sunlit
Object was in daylight at TLE epoch
Visualization TLE readout
Latitude-28.94771°
Longitude102.64612°
Altitude368.849 km
Speed7.688 km/s
Apparent Right ascension15h 48m 22s
Apparent Declination-46° 36' 28"
Sunlit
Object is in daylight
Visualization observer readout
Local Sidereal Time07:36:14
Azimuth118.831° SE
Elevation-48.898°
Doppler factor1
Orbital elements
Apogee altitude361.022 km
Perigee altitude358.933 km
Semi-major axis6,738.114 km
Eccentricity0.000155
Inclination53.1589°
RAAN350.4873°
Arg. of periapsis103.746°
True anomaly256.35584°
Mean anomaly256.3731°
Eccentric anomaly256.36447°
Mean motion3.92406 °/min
BSTAR-0.0000044479
Orbital period91.74 mins
Loading maneuver chart data...
Loading historical data...
Loading historical data...
Loading historical data...
Loading historical data...
Loading historical data...
Loading historical data...
Loading historical data...

STARLINK-11191 Visibility forecast

Observer location: undefined°, undefined

Span
Click to sort rows by Start time (UTC) header in descending order
Start Az.
Max El. time (UTC)
Max El. Az.
Max El.
End time (UTC)
End Az.
4 mins2025-01-15 08:03:46.267Z305.399° NW2025-01-15 08:05:46.267Z208.204° SW44.101°2025-01-15 08:07:46.267Z137.35° SSE
4 mins2025-01-16 00:32:46.267Z208.57° SW2025-01-16 00:34:46.267Z123.169° SE38.362°2025-01-16 00:36:46.267Z62.321° ENE
|